Location: *
(43.9900°N, 3.4811°E)
Time: 16:33:37
(UTC+00:00)

SL-16 R/B - Pass Details

Date: 25 August 2019
Orbit: 842 x 846 km, 71.0° (Epoch: 18 October)

Event Time Altitude Azimuth Distance (km) Brightness Sun altitude
Rises 23:05:56 0° 325° (NW) 3,413 6.2 -34.6°
Reaches altitude 10° 23:08:40 10° 314° (NW) 2,474 5.2 -34.7°
Enters shadow 23:11:29 23° 289° (WNW) 1,725 4.0 -34.8°
